DO2DV-13 Weather Reports


Display with metric or nautical units.
time (UTC)temp
F
wind
direction
speed
MPH
gust
MPH
rain 1hr
in
rain 24hr
in
rain mn
in
humidity
%
barometer
mb
20260507025033 48 0.0 0.0 0.00 0.07 0.00 97 1011.7
20260507024041 48 317 1.0 2.0 0.00 0.07 0.00 96 1011.8
20260507023105 48 219 2.0 2.0 0.00 0.07 0.00 96 1011.7
20260507022025 48 195 2.0 3.0 0.00 0.07 0.00 96 1011.6
20260507021050 48 196 1.0 3.0 0.00 0.07 0.00 96 1011.5
20260507020113 48 158 1.0 2.0 0.00 0.07 0.00 96 1011.4
20260507015033 48 208 2.0 3.0 0.00 0.07 0.00 96 1011.3
20260507014057 48 205 1.0 3.0 0.00 0.07 0.00 96 1011.2
20260507013121 49 109 2.0 5.0 0.00 0.07 0.00 95 1011.2
20260507012101 49 107 1.0 3.0 0.00 0.07 0.00 95 1011.1
20260507011125 49 206 2.0 5.0 0.00 0.07 0.00 95 1010.9
20260507010025 49 130 2.0 3.0 0.00 0.07 0.00 95 1011.0
20260507005050 50 184 2.0 6.0 0.00 0.07 0.00 96 1010.9
20260507004114 50 195 3.0 6.0 0.00 0.07 0.00 95 1010.8
20260507003033 50 210 3.0 6.0 0.00 0.07 0.00 95 1010.7
20260507002057 50 178 2.0 3.0 0.00 0.07 0.00 97 1010.7
20260507001121 50 191 1.0 3.0 0.00 0.07 0.00 97 1010.7
20260507000041 50 244 1.0 3.0 0.00 0.07 0.00 98 1010.6
20260506235146 50 147 0.0 1.0 0.00 0.07 0.00 98 1010.6
20260506234025 51 211 1.0 3.0 0.00 0.07 0.00 97 1010.6
20260506233109 51 206 1.0 3.0 0.00 0.07 0.00 96 1010.5
20260506232113 51 219 3.0 3.0 0.00 0.07 0.00 97 1010.5
20260506231033 51 201 1.0 5.0 0.00 0.07 0.00 98 1010.4
20260506230058 51 202 1.0 3.0 0.00 0.07 0.00 98 1010.3
20260506225121 51 149 1.0 2.0 0.00 0.07 0.00 98 1010.3
20260506224041 51 185 1.0 2.0 0.00 0.07 0.00 98 1010.2
20260506223106 51 222 1.0 3.0 0.00 0.07 0.00 99 1010.1
20260506222025 51 161 1.0 2.0 0.00 0.07 0.00 99 1010.1
20260506221130 51 215 1.0 3.0 0.00 0.07 0.00 99 1010.0
20260506220058 51 205 0.0 1.0 0.00 0.07 0.00 99 1009.8
20260506215122 51 323 0.0 1.0 0.00 0.07 0.07 99 1010.0
20260506214026 52 0.0 0.0 0.00 0.07 0.07 99 1009.7
20260506213048 52 0.0 0.0 0.00 0.07 0.07 99 1009.8
20260506212113 52 0.0 0.0 0.00 0.07 0.07 98 1009.7
20260506211034 52 224 2.0 7.0 0.00 0.07 0.07 98 1009.4
20260506210057 52 205 2.0 3.0 0.00 0.07 0.07 99 1009.3
20260506205121 52 209 0.0 1.0 0.00 0.07 0.07 99 1009.3
20260506204042 53 175 0.0 1.0 0.00 0.07 0.07 99 1009.2
20260506203105 53 165 0.0 2.0 0.00 0.07 0.07 99 1009.1
20260506202025 53 198 1.0 3.0 0.00 0.07 0.07 99 1009.1
20260506201050 53 222 0.0 2.0 0.00 0.07 0.07 99 1008.9
20260506200153 53 0.0 0.0 0.01 0.07 0.07 99 1008.8
20260506195034 53 121 0.0 2.0 0.04 0.07 0.07 99 1008.8
20260506194058 54 222 0.0 1.0 0.07 0.07 0.07 99 1008.7
20260506193121 54 165 1.0 1.0 0.07 0.07 0.07 99 1008.4
20260506192042 54 88 0.0 1.0 0.07 0.07 0.07 99 1008.3
20260506191105 54 0.0 0.0 0.07 0.07 0.07 98 1008.1
20260506190045 54 242 2.0 5.0 0.06 0.07 0.06 96 1008.1
20260506185110 55 273 4.0 9.0 0.03 0.04 0.03 93 1008.0
20260506184114 57 231 3.0 6.0 0.00 0.02 0.00 86 1007.8
20260506183113 57 211 3.0 5.0 0.00 0.03 0.00 82 1007.6
20260506182118 57 163 1.0 2.0 0.00 0.04 0.00 82 1007.4
20260506181141 57 192 2.0 2.0 0.00 0.06 0.00 81 1007.4
20260506180026 58 180 3.0 5.0 0.00 0.06 0.00 81 1007.3
20260506175050 58 221 1.0 6.0 0.00 0.06 0.00 79 1007.3
20260506174114 59 225 2.0 7.0 0.00 0.06 0.00 78 1007.2
20260506173034 59 258 3.0 7.0 0.00 0.07 0.00 76 1007.2
20260506172057 60 216 2.0 5.0 0.00 0.07 0.00 74 1006.9
20260506171105 60 225 4.0 7.0 0.00 0.08 0.00 73 1007.0
20260506170026 60 225 6.0 11.0 0.00 0.08 0.00 72 1007.0
20260506165110 60 206 3.0 6.0 0.00 0.08 0.00 73 1006.9
20260506164154 60 221 3.0 6.0 0.00 0.08 0.00 73 1006.9
20260506163034 61 227 3.0 6.0 0.00 0.08 0.00 71 1006.9
20260506162057 62 230 4.0 7.0 0.00 0.08 0.00 71 1007.0
20260506161122 62 239 4.0 9.0 0.00 0.08 0.00 70 1007.0
20260506155107 63 272 5.0 10.0 0.00 0.08 0.00 67 1007.0
20260506154026 65 253 4.0 8.0 0.00 0.08 0.00 62 1006.8
20260506153110 64 248 4.0 9.0 0.00 0.08 0.00 65 1006.8
20260506152114 64 224 5.0 10.0 0.00 0.08 0.00 65 1006.8
20260506151033 64 219 5.0 9.0 0.00 0.08 0.00 63 1006.8
20260506150058 65 233 5.0 8.0 0.00 0.08 0.00 61 1006.7
20260506145121 64 217 3.0 7.0 0.00 0.08 0.00 63 1006.6
20260506144042 63 245 3.0 7.0 0.00 0.08 0.00 65 1006.5
20260506143126 63 208 3.0 8.0 0.00 0.08 0.00 63 1006.6
20260506142045 64 223 4.0 8.0 0.00 0.08 0.00 61 1006.6
20260506141050 64 251 3.0 7.0 0.00 0.08 0.00 63 1006.5
20260506140114 64 217 4.0 9.0 0.00 0.08 0.00 63 1006.5
20260506135035 62 262 4.0 8.0 0.00 0.08 0.00 65 1006.4
20260506134058 63 190 3.0 5.0 0.00 0.08 0.00 66 1006.6
20260506133123 63 234 3.0 5.0 0.00 0.08 0.00 65 1006.5
20260506132042 63 232 3.0 5.0 0.00 0.08 0.00 65 1006.6
20260506131146 63 205 4.0 9.0 0.00 0.08 0.00 65 1006.6
20260506130026 63 213 4.0 8.0 0.00 0.08 0.00 67 1006.8
20260506125050 61 212 3.0 6.0 0.00 0.09 0.00 69 1006.8
20260506124134 62 257 3.0 6.0 0.00 0.09 0.00 70 1006.7
20260506123055 61 230 4.0 8.0 0.00 0.09 0.00 71 1006.8
20260506122042 60 248 3.0 5.0 0.00 0.09 0.00 74 1006.9
20260506121106 59 255 4.0 7.0 0.00 0.09 0.00 75 1006.8
20260506120026 60 249 2.0 7.0 0.00 0.09 0.00 75 1007.0
20260506115050 60 258 3.0 7.0 0.00 0.09 0.00 75 1006.9
20260506114114 59 241 4.0 6.0 0.00 0.09 0.00 77 1006.9
20260506113054 60 218 3.0 6.0 0.00 0.09 0.00 74 1007.0
20260506112058 60 214 2.0 5.0 0.00 0.09 0.00 75 1007.2
20260506111122 59 239 3.0 8.0 0.00 0.09 0.00 77 1007.3
20260506110042 60 211 3.0 5.0 0.00 0.09 0.00 75 1007.2
20260506105107 59 204 4.0 8.0 0.00 0.09 0.00 76 1007.3
20260506104026 58 208 3.0 7.0 0.00 0.09 0.00 77 1007.2
20260506103051 58 193 3.0 6.0 0.00 0.09 0.00 78 1007.1
20260506102114 59 210 3.0 6.0 0.00 0.09 0.00 78 1007.2
20260506101035 57 218 3.0 5.0 0.00 0.09 0.00 81 1007.1
20260506100059 59 229 4.0 8.0 0.00 0.09 0.00 80 1007.1
20260506095122 57 236 3.0 7.0 0.00 0.09 0.00 84 1007.2
20260506094043 57 196 2.0 6.0 0.00 0.09 0.00 83 1007.1
20260506093106 56 215 3.0 6.0 0.00 0.09 0.00 85 1007.1
20260506092026 57 165 3.0 7.0 0.00 0.09 0.00 84 1007.3
20260506091131 56 185 3.0 6.0 0.00 0.09 0.00 86 1007.1
20260506090115 56 188 2.0 6.0 0.00 0.09 0.00 86 1007.1
20260506085034 56 211 4.0 10.0 0.00 0.09 0.00 87 1007.0
20260506084059 56 161 3.0 6.0 0.00 0.09 0.00 87 1006.8
20260506083122 56 189 2.0 6.0 0.00 0.09 0.00 87 1006.5
20260506082043 56 196 4.0 8.0 0.00 0.09 0.00 86 1006.6
20260506081107 56 218 3.0 7.0 0.00 0.09 0.00 85 1006.5
20260506073034 53 188 1.0 5.0 0.00 0.09 0.00 94 1006.8
20260506072059 53 226 2.0 3.0 0.00 0.09 0.00 94 1007.0
20260506071123 53 180 2.0 5.0 0.00 0.09 0.00 95 1007.0
20260506062115 52 88 0.0 1.0 0.00 0.09 0.00 99 1006.5
20260506061034 52 191 0.0 3.0 0.00 0.09 0.00 99 1006.6
20260506051050 47 0.0 0.0 0.00 0.09 0.00 99 1006.6
20260506050115 46 0.0 0.0 0.00 0.09 0.00 99 1006.5
20260506045034 46 0.0 0.0 0.00 0.09 0.00 99 1006.4
20260506044118 47 0.0 0.0 0.00 0.09 0.00 99 1006.4
20260506043123 46 0.0 0.0 0.00 0.09 0.00 99 1006.5
20260506042043 46 0.0 0.0 0.00 0.09 0.00 99 1006.5
20260506041106 47 0.0 0.0 0.00 0.09 0.00 99 1006.6
20260506040026 47 0.0 0.0 0.00 0.09 0.00 99 1006.6
20260506035051 47 0.0 0.0 0.00 0.09 0.00 99 1006.7
20260506034115 48 0.0 0.0 0.00 0.09 0.00 99 1006.9
20260506033034 48 0.0 0.0 0.00 0.09 0.00 99 1006.9
20260506032058 48 0.0 0.0 0.00 0.09 0.00 99 1007.0
20260506031143 49 0.0 0.0 0.00 0.09 0.00 99 1006.9